Regional Weather Roundup
Issued by NWS

Home | Current Version | Previous Version | Text Only | Print | Product List | Glossary On
Versions: 1 2 3 4 5 6 7 8 9 10 11 12 13 14 15 16 17 18 19 20 21 22 23 24 25 26 27 28 29 30 31 32 33 34 35 36 37 38 39 40 41 42 43 44 45 46 47 48 49 50
000
ASUS44 KBMX 270810
RWRAL

ALABAMA REGIONAL WEATHER ROUNDUP
NATIONAL WEATHER SERVICE BIRMINGHAM AL
200 AM CST TUE JAN 27 2015

NOTE: "FAIR" INDICATES FEW OR NO CLOUDS BELOW 12,000 FEET
WITH NO SIGNIFICANT WEATHER AND/OR OBSTRUCTIONS TO VISIBILITY.

THE REMARK "TC" DENOTES TEMPERATURE IN DEGREES CELSIUS.

ALZ001>011-014-016>018-020-270900-
NORTH ALABAMA

CITY           SKY/WX    TMP DP  RH WIND       PRES   REMARKS
MUSCLE SHOALS  CLEAR     35  28  75 CALM      29.92F
HUNTSVILLE     CLOUDY    39  33  79 E5        29.91F
DECATUR        MOCLDY    37  32  82 S5        29.91F WCI  33
HALEYVILLE       N/A     28  28 100 CALM      29.93F
GADSDEN        CLOUDY   N/A N/A N/A CALM      29.93S
$$

ALZ012-013-022-023-030>036-040>044-270900-
WEST CENTRAL ALABAMA

CITY           SKY/WX    TMP DP  RH WIND       PRES   REMARKS
TUSCALOOSA     CLEAR     32  29  88 CALM      29.97F
$$

ALZ015-024>027-033>036-040>044-270900-
CENTRAL ALABAMA

CITY           SKY/WX    TMP DP  RH WIND       PRES   REMARKS
BIRMINGHAM     CLEAR     37  31  78 CALM      29.94F
MONTGOMERY     CLEAR     35  30  82 S6        29.99F WCI  30
SHELBY CO ARPT CLEAR     34  30  85 CALM      29.95F
MAXWELL AFB    CLEAR     35  32  87 SW5       29.97F WCI  31
GREENVILLE     FAIR      34  30  85 CALM      29.98F
$$

ALZ019-021-028-029-037-038-045>048-270900-
EAST CENTRAL ALABAMA

CITY           SKY/WX    TMP DP  RH WIND       PRES   REMARKS
ANNISTON       CLOUDY    38  31  76 W8        29.94F WCI  32
ALEXANDER CITY CLEAR     34  30  85 CALM      29.95F
AUBURN         CLEAR     36  27  69 W3        29.97S
$$

ALZ051>064-270900-
SOUTHWEST ALABAMA

CITY           SKY/WX    TMP DP  RH WIND       PRES   REMARKS
MOBILE         CLEAR     42  32  67 W5        30.05F
BROOKLEY FIELD CLEAR     47  34  60 W3        30.07S
EVERGREEN      CLEAR     32  30  92 CALM      30.02F
$$

ALZ049-050-065>069-270900-
SOUTHEAST ALABAMA

CITY           SKY/WX    TMP DP  RH WIND       PRES   REMARKS
DOTHAN         CLEAR     39  33  79 NW7       30.03F WCI  34
OZARK          CLEAR     36  31  82 NW2       30.00F
TROY           CLEAR     35  29  78 CALM      30.00F
EUFAULA        FAIR      38  31  76 W3        29.97F
$$


USA.gov is the U.S. government's official web portal to all federal, state and local government web resources and services.